Location: Treviso
(45.6669°N, 12.2430°E)
Time: 23:16:31
(UTC+01:00)

ISS - Pass Details

Date: 13 November 2018
Orbit: 402 x 409 km, 51.6° (Epoch: 14 November)

Event Time Altitude Azimuth Distance (km) Brightness Sun altitude
Exits shadow 06:34:43 - 269° (W) 1,731 -1.2 -6.1°
Reaches altitude 10° 06:35:54 10° 252° (WSW) 1,459 -1.5 -5.9°
Maximum altitude 06:37:17 12° 227° (SW) 1,333 -1.5 -5.7°
Drops below altitude 10° 06:38:40 10° 202° (SSW) 1,456 -1.0 -5.5°
Sets 06:41:43 0° 171° (S) 2,312 0.5 -5.0°
